カタログに戻る

THORAD DELTA 1 DEB

運用中LEO
NORAD 8560·DEBRIS·🇺🇸 United States

打ち上げ Nov 15, 1974 から Vandenberg Space Force Base

Loading…

次のパス (今後24時間)

TLE

最新Source: Space-Track

元期: Sep 14, 2026, 07:14 UTC

1 08560U 74089CX  26257.30138993  .00000279  00000-0  43802-3 0  9993
2 08560 102.1173 211.0625 0402248 134.2814 229.2050 13.32831467505633

AllMySatでTHORAD DELTA 1 DEBをリアルタイム追跡

Download on the App Store